Location: Igon
(43.1667°N, 0.2333°W)
Time: 05:54:03
(UTC+00:00)

Cosmos 2181 Rocket - Pass Details

Date: 29 November 2020
Orbit: 951 x 1015 km, 82.9° (Epoch: 27 January)

Event Time Altitude Azimuth Distance (km) Brightness Sun altitude
Rises 04:56:38 0° 351° (N) 3,681 6.9 -23.9°
Reaches altitude 10° 04:59:10 10° 350° (N) 2,721 6.2 -23.5°
Maximum altitude 05:05:23 81° 265° (W) 977 3.8 -22.4°
Drops below altitude 10° 05:11:29 10° 179° (S) 2,673 6.4 -21.3°
Sets 05:13:57 0° 178° (S) 3,612 7.1 -20.8°
